Date String (YYYY-MM-DD hh:mm:ss) UTC,Instrument flags,absolute air pressure of the measurement (hPa),sample flow rate (lpm),inlet stack bypass flow (lpm),air temperature of the measurement (°C),ambient temperature measured by the external sensor (°C),aerosol sample conditioner tube jacket temperature (°C),OPC LED temperature (°C),internal box temperature (°C),relative humidity of the measurement (%),span deviation,mass concentration of particles derived from Lorenz-Mie calculation of OPC scattering (μg/m³),mass concentration of particles derived from Lorenz-Mie calculation of OPC scattering (μg/m³),mass concentration of particles derived from Lorenz-Mie calculation of OPC scattering (μg/m³)
DateTimeUTC,F1_M11,P_M11,Q1_M11,Q2_M11,T1_M11,T2_M11,T3_M11,T4_M11,T5_M11,U1_M11,ZSPAN_M11,X0_M11,X2_M11,X1_M11
2023-07-07 02:00:00,SystemResetWarning,0831.3,4.99,000.00,031.5,027.9,000.0,039.8,031.6,32.7,0000.5,0012.05,0007.90,0007.40
2023-07-07 02:01:00,SystemResetWarning,0831.3,4.98,000.00,031.5,028.0,000.0,039.8,031.7,32.7,0000.2,0012.02,0007.88,0007.35
2023-07-07 02:02:00,SystemResetWarning,0831.3,4.99,000.00,031.5,028.2,000.0,039.8,031.7,32.9,0000.1,0011.50,0007.79,0007.30
2023-07-07 02:03:00,SystemResetWarning,0831.3,5.02,000.00,031.4,028.3,000.0,039.8,031.7,32.5,-000.1,0010.92,0007.68,0007.23
2023-07-07 02:04:00,SystemResetWarning,0831.3,5.00,000.00,031.4,028.4,000.0,039.8,031.8,32.1,-000.4,0010.34,0007.59,0007.14
2023-07-07 02:05:00,SystemResetWarning,0831.3,4.99,000.00,031.4,028.5,000.0,039.8,031.8,32.4,-000.5,0010.22,0007.51,0007.08
2023-07-07 02:06:00,SystemResetWarning,0831.3,4.99,000.00,031.4,027.9,000.0,039.7,031.8,32.2,-000.3,0010.18,0007.47,0007.03
2023-07-07 02:07:00,SystemResetWarning,0831.3,5.00,000.00,031.3,026.3,000.0,039.5,031.6,31.4,0000.2,0010.09,0007.39,0006.95
2023-07-07 02:08:00,SystemResetWarning,0831.3,5.00,000.00,031.3,025.8,000.0,039.4,031.4,31.4,0000.2,0010.00,0007.31,0006.86
2023-07-07 02:09:00,SystemResetWarning,0831.3,5.00,000.00,031.1,025.9,000.0,039.4,031.2,32.2,-000.2,0010.05,0007.24,0006.78
2023-07-07 02:10:00,SystemResetWarning,0831.3,5.01,000.00,031.0,026.3,000.0,039.4,031.2,32.7,-000.1,0010.35,0007.20,0006.73
2023-07-07 02:11:00,SystemResetWarning,0831.4,5.00,000.00,030.9,026.6,000.0,039.4,031.2,32.7,0000.1,0010.32,0007.16,0006.66
2023-07-07 02:12:00,SystemResetWarning,0831.3,5.00,000.00,030.8,027.0,000.0,039.3,031.3,32.3,0000.6,0010.31,0007.12,0006.62
2023-07-07 02:13:00,SystemResetWarning,0831.4,4.99,000.00,030.8,027.3,000.0,039.3,031.3,32.1,0000.6,0010.28,0007.08,0006.60
2023-07-07 02:14:00,SystemResetWarning,0831.4,4.99,000.00,030.8,027.6,000.0,039.3,031.4,32.3,0001.0,0010.31,0007.09,0006.59
2023-07-07 02:15:00,SystemResetWarning,0831.4,5.00,000.00,030.7,027.8,000.0,039.3,031.4,32.4,0000.8,0010.30,0007.10,0006.59
2023-07-07 02:16:00,SystemResetWarning,0831.4,5.00,000.00,030.7,028.0,000.0,039.2,031.5,32.6,0000.7,0010.56,0007.11,0006.57
2023-07-07 02:17:00,SystemResetWarning,0831.3,5.01,000.00,030.7,028.1,000.0,039.2,031.5,32.6,0000.8,0011.14,0007.06,0006.53
2023-07-07 02:18:00,SystemResetWarning,0831.4,5.00,000.00,030.7,028.3,000.0,039.2,031.5,32.2,0000.4,0011.17,0007.02,0006.48
2023-07-07 02:19:00,SystemResetWarning,0831.4,4.98,000.00,030.7,028.4,000.0,039.2,031.6,32.0,0000.2,0011.16,0006.95,0006.44
2023-07-07 02:20:00,SystemResetWarning,0831.5,4.99,000.00,030.7,028.2,000.0,039.2,031.6,31.8,-000.0,0011.10,0006.95,0006.41
2023-07-07 02:21:00,SystemResetWarning,0831.4,5.00,000.00,030.7,026.7,000.0,039.0,031.5,31.8,0000.1,0010.92,0006.93,0006.37
2023-07-07 02:22:00,SystemResetWarning,0831.4,5.01,000.00,030.6,025.7,000.0,038.9,031.2,32.2,-000.1,0010.83,0006.90,0006.34
2023-07-07 02:23:00,SystemResetWarning,0831.4,5.01,000.00,030.5,025.6,000.0,038.8,031.0,32.5,-000.2,0010.78,0006.86,0006.32
2023-07-07 02:24:00,SystemResetWarning,0831.4,5.01,000.00,030.3,025.9,000.0,038.9,030.9,32.7,-000.3,0010.68,0006.80,0006.28
2023-07-07 02:25:00,SystemResetWarning,0831.4,5.00,000.00,030.3,026.3,000.0,038.8,031.0,33.6,-000.5,0010.63,0006.75,0006.22
2023-07-07 02:26:00,SystemResetWarning,0831.4,4.99,000.00,030.2,026.7,000.0,038.8,031.0,33.4,-000.2,0010.58,0006.70,0006.17
2023-07-07 02:27:00,SystemResetWarning,0831.4,5.00,000.00,030.2,027.1,000.0,038.8,031.1,33.0,-000.2,0010.45,0006.65,0006.15
2023-07-07 02:28:00,SystemResetWarning,0831.4,5.00,000.00,030.2,027.4,000.0,038.8,031.2,32.6,-000.9,0010.25,0006.62,0006.13
2023-07-07 02:29:00,SystemResetWarning,0831.4,5.00,000.00,030.2,027.6,000.0,038.8,031.2,32.8,-001.1,0010.20,0006.56,0006.12
2023-07-07 02:30:00,SystemResetWarning,0831.4,5.00,000.00,030.2,027.8,000.0,038.8,031.3,32.5,-001.0,0010.06,0006.54,0006.10
2023-07-07 02:31:00,SystemResetWarning,0831.5,5.00,000.00,030.2,028.0,000.0,038.8,031.3,32.4,-001.0,0010.01,0006.50,0006.08
2023-07-07 02:32:00,SystemResetWarning,0831.4,4.99,000.00,030.2,028.1,000.0,038.7,031.3,32.4,-001.4,0009.93,0006.44,0006.06
2023-07-07 02:33:00,SystemResetWarning,0831.4,5.00,000.00,030.2,028.2,000.0,038.7,031.4,32.1,-001.5,0009.93,0006.43,0006.04
2023-07-07 02:34:00,SystemResetWarning,0831.4,5.00,000.00,030.2,028.3,000.0,038.7,031.4,32.0,-001.9,0009.89,0006.43,0006.04
2023-07-07 02:35:00,SystemResetWarning,0831.4,4.98,000.00,030.2,027.4,000.0,038.6,031.4,32.1,-001.8,0009.95,0006.46,0006.05
2023-07-07 02:36:00,SystemResetWarning,0831.4,5.01,000.00,030.2,026.0,000.0,038.5,031.2,31.7,-001.9,0009.91,0006.45,0006.05
2023-07-07 02:37:00,SystemResetWarning,0831.4,5.01,000.00,030.1,025.6,000.0,038.4,031.0,31.8,-002.2,0009.92,0006.44,0006.05
2023-07-07 02:38:00,SystemResetWarning,0831.5,5.00,000.00,030.0,025.8,000.0,038.4,030.8,32.1,-002.3,0009.88,0006.41,0006.03
2023-07-07 02:39:00,SystemResetWarning,0831.5,4.99,000.00,029.9,026.2,000.0,038.4,030.8,32.0,-001.9,0009.49,0006.40,0006.03
2023-07-07 02:40:00,SystemResetWarning,0831.5,5.00,000.00,029.9,026.6,000.0,038.4,030.9,31.9,-001.3,0009.13,0006.41,0006.02
2023-07-07 02:41:00,SystemResetWarning,0831.5,5.01,000.00,029.8,026.9,000.0,038.4,030.9,32.1,-001.5,0009.27,0006.45,0006.03
2023-07-07 02:42:00,SystemResetWarning,0831.5,5.00,000.00,029.8,027.2,000.0,038.4,031.0,32.0,-001.6,0009.52,0006.49,0006.04
2023-07-07 02:43:00,SystemResetWarning,0831.5,4.99,000.00,029.8,027.5,000.0,038.4,031.0,32.2,-001.5,0010.04,0006.49,0006.04
2023-07-07 02:44:00,SystemResetWarning,0831.5,4.99,000.00,029.8,027.7,000.0,038.4,031.1,31.9,-001.4,0010.04,0006.48,0006.04
2023-07-07 02:45:00,SystemResetWarning,0831.6,5.01,000.00,029.9,027.9,000.0,038.4,031.1,31.7,-000.7,0009.99,0006.46,0006.04
2023-07-07 02:46:00,SystemResetWarning,0831.6,5.00,000.00,029.9,028.0,000.0,038.4,031.2,31.7,-001.0,0009.98,0006.46,0006.04
2023-07-07 02:47:00,SystemResetWarning,0831.6,5.00,000.00,029.9,028.1,000.0,038.4,031.2,32.0,-001.1,0010.02,0006.45,0006.03
2023-07-07 02:48:00,SystemResetWarning,0831.6,5.00,000.00,029.9,028.2,000.0,038.4,031.3,32.0,-001.2,0009.99,0006.44,0006.03
2023-07-07 02:49:00,SystemResetWarning,0831.7,5.00,000.00,029.9,028.3,000.0,038.4,031.3,32.6,-001.0,0010.28,0006.46,0006.05
2023-07-07 02:50:00,SystemResetWarning,0831.7,5.00,000.00,030.0,028.1,000.0,038.4,031.3,33.4,-001.4,0011.09,0006.48,0006.05
2023-07-07 02:51:00,SystemResetWarning,0831.6,4.99,000.00,029.9,026.5,000.0,038.3,031.2,32.3,-001.7,0011.15,0006.48,0006.04
2023-07-07 02:52:00,SystemResetWarning,0831.7,5.00,000.00,029.9,025.6,000.0,038.1,031.0,31.9,-002.1,0011.09,0006.45,0006.03
2023-07-07 02:53:00,SystemResetWarning,0831.7,5.01,000.00,029.7,025.6,000.0,038.1,030.7,32.2,-001.8,0011.09,0006.45,0006.03
2023-07-07 02:54:00,SystemResetWarning,0831.7,5.01,000.00,029.6,026.0,000.0,038.2,030.7,32.2,-001.6,0010.48,0006.48,0006.04
2023-07-07 02:55:00,SystemResetWarning,0831.7,5.00,000.00,029.6,026.3,000.0,038.2,030.7,33.1,-001.3,0010.50,0006.49,0006.05
2023-07-07 02:56:00,SystemResetWarning,0831.7,5.00,000.00,029.6,026.7,000.0,038.2,030.8,32.9,-001.7,0011.10,0006.55,0006.07
2023-07-07 02:57:00,SystemResetWarning,0831.7,5.00,000.00,029.6,027.0,000.0,038.2,030.9,32.6,-001.8,0011.20,0006.55,0006.08
2023-07-07 02:58:00,SystemResetWarning,0831.7,5.00,000.00,029.6,027.3,000.0,038.2,030.9,32.0,-002.4,0011.55,0006.56,0006.08
2023-07-07 02:59:00,SystemResetWarning,0831.7,5.00,000.00,029.6,027.5,000.0,038.2,031.0,32.1,-003.1,0011.59,0006.56,0006.08
